User: anonymous   Login
Location: Melbourne
(37.8170°S, 144.9670°E)
Time: 15:03:30
(UTC+11:00)
Language:

Aureole 2 Rocket - Orbit

View from above orbital plane
View from above orbital plane
View from above satellite
View from above satellite

Ground track
Ground track

The orbit data is extracted from the following two-line orbital elements,

1 07004U 73107B   14304.50725650  .00025168  00000-0  65046-3 0  7669
2 07004 073.9469 306.0549 0284611 057.3012 104.5234 15.06855190 90860
Epoch (UTC): 31 October 2014 12:10:26
Eccentricity: 0.0284611
inclination: 73.9469°
perigee height: 349 km
apogee height: 743 km
right ascension of ascending node: 306.0549°
argument of perigee: 57.3012°
revolutions per day: 15.06855190
mean anomaly at epoch: 104.5234°
orbit number at epoch: 9086

The dashed part of the orbit path shows where the satellite is in the earth's shadow,  

DLR